Location: Banios
(43.0451°N, 0.2335°E)
Time: 20:49:23
(UTC+00:00)

ERS-2 - Pass Details

Date: 25 January 2021
Orbit: 492 x 497 km, 98.6° (Epoch: 01 March)

Event Time Altitude Azimuth Distance (km) Brightness Sun altitude
Rises 06:00:30 0° 188° (S) 2,570 5.8 -14.7°
Reaches altitude 10° 06:02:44 10° 199° (SSW) 1,692 4.7 -14.3°
Maximum altitude 06:05:58 30° 262° (W) 912 2.9 -13.7°
Enters shadow 06:07:37 21° 306° (NW) 1,168 3.4 -13.4°
